Year,Month,Day,Hour,Minute,Value (Times are PST for temperature in C)
2008,06,16,00,00,11.30
2008,06,16,00,01,11.30
2008,06,16,00,02,11.20
2008,06,16,00,03,11.20
2008,06,16,00,04,11.20
2008,06,16,00,05,11.20
2008,06,16,00,06,11.20
2008,06,16,00,07,11.20
2008,06,16,00,08,11.20
2008,06,16,00,09,11.20
2008,06,16,00,10,11.20
2008,06,16,00,11,11.10
2008,06,16,00,12,11.10
2008,06,16,00,13,11.10
2008,06,16,00,14,11.10
2008,06,16,00,15,11.10
2008,06,16,00,16,11.10
2008,06,16,00,17,11.10
2008,06,16,00,18,11.10
2008,06,16,00,19,11.00
2008,06,16,00,20,10.90
2008,06,16,00,21,10.90
2008,06,16,00,22,10.90
2008,06,16,00,23,10.90
2008,06,16,00,24,10.90
2008,06,16,00,25,10.90
2008,06,16,00,26,10.90
2008,06,16,00,27,10.90
2008,06,16,00,28,10.90
2008,06,16,00,29,10.90
2008,06,16,00,30,10.90
2008,06,16,00,31,10.90
2008,06,16,00,32,10.90
2008,06,16,00,33,10.80
2008,06,16,00,34,10.80
2008,06,16,00,35,10.80
2008,06,16,00,36,10.80
2008,06,16,00,37,10.70
2008,06,16,00,38,10.70
2008,06,16,00,39,10.70
2008,06,16,00,40,10.70
2008,06,16,00,41,10.60
2008,06,16,00,42,10.60
2008,06,16,00,43,10.60
2008,06,16,00,44,10.60
2008,06,16,00,45,10.60
2008,06,16,00,46,10.60
2008,06,16,00,47,10.60
2008,06,16,00,48,10.50
2008,06,16,00,49,10.40
2008,06,16,00,50,10.40
2008,06,16,00,51,10.40
2008,06,16,00,52,10.40
2008,06,16,00,53,10.40
2008,06,16,00,54,10.40
2008,06,16,00,55,10.40
2008,06,16,00,56,10.40
2008,06,16,00,57,10.40
2008,06,16,00,58,10.40
2008,06,16,00,59,10.30
2008,06,16,01,00,10.30
2008,06,16,01,01,10.30
2008,06,16,01,02,10.30
2008,06,16,01,03,10.30
2008,06,16,01,04,10.30
2008,06,16,01,05,10.30
2008,06,16,01,06,10.20
2008,06,16,01,07,10.20
2008,06,16,01,08,10.20
2008,06,16,01,09,10.20
2008,06,16,01,10,10.20
2008,06,16,01,11,10.20
2008,06,16,01,12,10.20
2008,06,16,01,13,10.20
2008,06,16,01,14,10.20
2008,06,16,01,15,10.20
2008,06,16,01,16,10.20
2008,06,16,01,17,10.20
2008,06,16,01,18,10.10
2008,06,16,01,19,10.10
2008,06,16,01,20,10.10
2008,06,16,01,21,10.10
2008,06,16,01,22,10.10
2008,06,16,01,23,10.20
2008,06,16,01,24,10.10
2008,06,16,01,25,10.10
2008,06,16,01,26,10.10
2008,06,16,01,27,10.10
2008,06,16,01,28,10.10
2008,06,16,01,29,10.10
2008,06,16,01,30,10.20
2008,06,16,01,31,10.20
2008,06,16,01,32,10.20
2008,06,16,01,33,10.20
2008,06,16,01,34,10.20
2008,06,16,01,35,10.20
2008,06,16,01,36,10.20
2008,06,16,01,37,10.20
2008,06,16,01,38,10.20
2008,06,16,01,39,10.30
2008,06,16,01,40,10.30
2008,06,16,01,41,10.30
2008,06,16,01,42,10.30
2008,06,16,01,43,10.30
2008,06,16,01,44,10.30
2008,06,16,01,45,10.40
2008,06,16,01,46,10.40
2008,06,16,01,47,10.40
2008,06,16,01,48,10.40
2008,06,16,01,49,10.30
2008,06,16,01,50,10.30
2008,06,16,01,51,10.30
2008,06,16,01,52,10.30
2008,06,16,01,53,10.30
2008,06,16,01,54,10.20
2008,06,16,01,55,10.20
2008,06,16,01,56,10.20
2008,06,16,01,57,10.30
2008,06,16,01,58,10.30
2008,06,16,01,59,10.30
2008,06,16,02,00,10.30
2008,06,16,02,01,10.30
2008,06,16,02,02,10.30
2008,06,16,02,03,10.30
2008,06,16,02,04,10.30
2008,06,16,02,05,10.30
2008,06,16,02,06,10.30
2008,06,16,02,07,10.30
2008,06,16,02,08,10.30
2008,06,16,02,09,10.30
2008,06,16,02,10,10.30
2008,06,16,02,11,10.20
2008,06,16,02,12,10.20
2008,06,16,02,13,10.20
2008,06,16,02,14,10.10
2008,06,16,02,15,10.10
2008,06,16,02,16,10.10
2008,06,16,02,17,10.00
2008,06,16,02,18,9.90
2008,06,16,02,19,9.90
2008,06,16,02,20,9.90
2008,06,16,02,21,9.90
2008,06,16,02,22,9.90
2008,06,16,02,23,9.90
2008,06,16,02,24,9.90
2008,06,16,02,25,9.90
2008,06,16,02,26,9.90
2008,06,16,02,27,9.80
2008,06,16,02,28,9.80
2008,06,16,02,29,9.80
2008,06,16,02,30,9.80
2008,06,16,02,31,9.80
2008,06,16,02,32,9.70
2008,06,16,02,33,9.70
2008,06,16,02,34,9.70
2008,06,16,02,35,9.70
2008,06,16,02,36,9.70
2008,06,16,02,37,9.70
2008,06,16,02,38,9.70
2008,06,16,02,39,9.70
2008,06,16,02,40,9.70
2008,06,16,02,41,9.70
2008,06,16,02,42,9.70
2008,06,16,02,43,9.70
2008,06,16,02,44,9.70
2008,06,16,02,45,9.70
2008,06,16,02,46,9.70
2008,06,16,02,47,9.60
2008,06,16,02,48,9.60
2008,06,16,02,49,9.60
2008,06,16,02,50,9.60
2008,06,16,02,51,9.60
2008,06,16,02,52,9.60
2008,06,16,02,53,9.60
2008,06,16,02,54,9.60
2008,06,16,02,55,9.60
2008,06,16,02,56,9.60
2008,06,16,02,57,9.60
2008,06,16,02,58,9.50
2008,06,16,02,59,9.50
2008,06,16,03,00,9.50
2008,06,16,03,01,9.50
2008,06,16,03,02,9.50
2008,06,16,03,03,9.50
2008,06,16,03,04,9.50
2008,06,16,03,05,9.50
2008,06,16,03,06,9.50
2008,06,16,03,07,9.50
2008,06,16,03,08,9.50
2008,06,16,03,09,9.50
2008,06,16,03,10,9.50
2008,06,16,03,11,9.50
2008,06,16,03,12,9.50
2008,06,16,03,13,9.50
2008,06,16,03,14,9.50
2008,06,16,03,15,9.50
2008,06,16,03,16,9.50
2008,06,16,03,17,9.50
2008,06,16,03,18,9.40
2008,06,16,03,19,9.40
2008,06,16,03,20,9.40
2008,06,16,03,21,9.40
2008,06,16,03,22,9.40
2008,06,16,03,23,9.40
2008,06,16,03,24,9.40
2008,06,16,03,25,9.40
2008,06,16,03,26,9.40
2008,06,16,03,27,9.40
2008,06,16,03,28,9.30
2008,06,16,03,29,9.30
2008,06,16,03,30,9.30
2008,06,16,03,31,9.30
2008,06,16,03,32,9.30
2008,06,16,03,33,9.30
2008,06,16,03,34,9.30
2008,06,16,03,35,9.30
2008,06,16,03,36,9.30
2008,06,16,03,37,9.20
2008,06,16,03,38,9.20
2008,06,16,03,39,9.20
2008,06,16,03,40,9.20
2008,06,16,03,41,9.20
2008,06,16,03,42,9.20
2008,06,16,03,43,9.20
2008,06,16,03,44,9.20
2008,06,16,03,45,9.20
2008,06,16,03,46,9.20
2008,06,16,03,47,9.20
2008,06,16,03,48,9.20
2008,06,16,03,49,9.20
2008,06,16,03,50,9.20
2008,06,16,03,51,9.20
2008,06,16,03,52,9.20
2008,06,16,03,53,9.20
2008,06,16,03,54,9.20
2008,06,16,03,55,9.20
2008,06,16,03,56,9.20
2008,06,16,03,57,9.20
2008,06,16,03,58,9.10
2008,06,16,03,59,9.10
2008,06,16,04,00,9.10
2008,06,16,04,01,9.10
2008,06,16,04,02,9.10
2008,06,16,04,03,9.10
2008,06,16,04,04,9.10
2008,06,16,04,05,9.10
2008,06,16,04,06,9.10
2008,06,16,04,07,9.10
2008,06,16,04,08,9.10
2008,06,16,04,09,9.10
2008,06,16,04,10,9.10
2008,06,16,04,11,9.10
2008,06,16,04,12,9.00
2008,06,16,04,13,9.00
2008,06,16,04,14,9.00
2008,06,16,04,15,9.00
2008,06,16,04,16,9.00
2008,06,16,04,17,9.00
2008,06,16,04,18,9.00
2008,06,16,04,19,9.00
2008,06,16,04,20,9.00
2008,06,16,04,21,9.00
2008,06,16,04,22,9.00
2008,06,16,04,23,9.00
2008,06,16,04,24,9.00
2008,06,16,04,25,8.90
2008,06,16,04,26,8.90
2008,06,16,04,27,8.90
2008,06,16,04,28,8.90
2008,06,16,04,29,8.90
2008,06,16,04,30,8.90
2008,06,16,04,31,8.90
2008,06,16,04,32,8.90
2008,06,16,04,33,8.90
2008,06,16,04,34,8.90
2008,06,16,04,35,8.90
2008,06,16,04,36,8.90
2008,06,16,04,37,8.80
2008,06,16,04,38,8.80
2008,06,16,04,39,8.80
2008,06,16,04,40,8.80
2008,06,16,04,41,8.80
2008,06,16,04,42,8.80
2008,06,16,04,43,8.80
2008,06,16,04,44,8.80
2008,06,16,04,45,8.80
2008,06,16,04,46,8.80
2008,06,16,04,47,8.80
2008,06,16,04,48,8.80
2008,06,16,04,49,8.80
2008,06,16,04,50,8.80
2008,06,16,04,51,8.80
2008,06,16,04,52,8.80
2008,06,16,04,53,8.80
2008,06,16,04,54,8.80
2008,06,16,04,55,8.80
2008,06,16,04,56,8.80
2008,06,16,04,57,8.80
2008,06,16,04,58,8.80
2008,06,16,04,59,8.80
2008,06,16,05,00,8.80
2008,06,16,05,01,8.80
2008,06,16,05,02,8.80
2008,06,16,05,03,8.80
2008,06,16,05,04,8.80
2008,06,16,05,05,8.80
2008,06,16,05,06,8.80
2008,06,16,05,07,8.80
2008,06,16,05,08,8.80
2008,06,16,05,09,8.70
2008,06,16,05,10,8.70
2008,06,16,05,11,8.70
2008,06,16,05,12,8.70
2008,06,16,05,13,8.70
2008,06,16,05,14,8.70
2008,06,16,05,15,8.70
2008,06,16,05,16,8.70
2008,06,16,05,17,8.70
2008,06,16,05,18,8.70
2008,06,16,05,19,8.70
2008,06,16,05,20,8.70
2008,06,16,05,21,8.70
2008,06,16,05,22,8.70
2008,06,16,05,23,8.70
2008,06,16,05,24,8.70
2008,06,16,05,25,8.70
2008,06,16,05,26,8.70
2008,06,16,05,27,8.70
2008,06,16,05,28,8.70
2008,06,16,05,29,8.70
2008,06,16,05,30,8.70
2008,06,16,05,31,8.70
2008,06,16,05,32,8.70
2008,06,16,05,33,8.70
2008,06,16,05,34,8.70
2008,06,16,05,35,8.70
2008,06,16,05,36,8.70
2008,06,16,05,37,8.70
2008,06,16,05,38,8.70
2008,06,16,05,39,8.70
2008,06,16,05,40,8.70
2008,06,16,05,41,8.70
2008,06,16,05,42,8.70
2008,06,16,05,43,8.70
2008,06,16,05,44,8.70
2008,06,16,05,45,8.70
2008,06,16,05,46,8.70
2008,06,16,05,47,8.70
2008,06,16,05,48,8.70
2008,06,16,05,49,8.70
2008,06,16,05,50,8.70
2008,06,16,05,51,8.70
2008,06,16,05,52,8.70
2008,06,16,05,53,8.70
2008,06,16,05,54,8.70
2008,06,16,05,55,8.70
2008,06,16,05,56,8.70
2008,06,16,05,57,8.70
2008,06,16,05,58,8.70
2008,06,16,05,59,8.70
2008,06,16,06,00,8.70
2008,06,16,06,01,8.70
2008,06,16,06,02,8.70
2008,06,16,06,03,8.80
2008,06,16,06,04,8.80
2008,06,16,06,05,8.80
2008,06,16,06,06,8.90
2008,06,16,06,07,8.90
2008,06,16,06,08,8.90
2008,06,16,06,09,9.00
2008,06,16,06,10,9.00
2008,06,16,06,11,9.00
2008,06,16,06,12,9.00
2008,06,16,06,13,9.10
2008,06,16,06,14,9.10
2008,06,16,06,15,9.10
2008,06,16,06,16,9.10
2008,06,16,06,17,9.20
2008,06,16,06,18,9.20
2008,06,16,06,19,9.20
2008,06,16,06,20,9.20
2008,06,16,06,21,9.20
2008,06,16,06,22,9.20
2008,06,16,06,23,9.30
2008,06,16,06,24,9.30
2008,06,16,06,25,9.30
2008,06,16,06,26,9.40
2008,06,16,06,27,9.40
2008,06,16,06,28,9.40
2008,06,16,06,29,9.50
2008,06,16,06,30,9.50
2008,06,16,06,31,9.60
2008,06,16,06,32,9.60
2008,06,16,06,33,9.70
2008,06,16,06,34,9.70
2008,06,16,06,35,9.70
2008,06,16,06,36,9.80
2008,06,16,06,37,9.80
2008,06,16,06,38,9.80
2008,06,16,06,39,9.80
2008,06,16,06,40,9.80
2008,06,16,06,41,9.90
2008,06,16,06,42,9.90
2008,06,16,06,43,9.90
2008,06,16,06,44,10.10
2008,06,16,06,45,10.10
2008,06,16,06,46,10.10
2008,06,16,06,47,10.20
2008,06,16,06,48,10.20
2008,06,16,06,49,10.30
2008,06,16,06,50,10.30
2008,06,16,06,51,10.40
2008,06,16,06,52,10.40
2008,06,16,06,53,10.40
2008,06,16,06,54,10.40
2008,06,16,06,55,10.50
2008,06,16,06,56,10.60
2008,06,16,06,57,10.60
2008,06,16,06,58,10.60
2008,06,16,06,59,10.60
2008,06,16,07,00,10.60
2008,06,16,07,01,10.70
2008,06,16,07,02,10.70
2008,06,16,07,03,10.80
2008,06,16,07,04,10.80
2008,06,16,07,05,10.90
2008,06,16,07,06,10.90
2008,06,16,07,07,10.90
2008,06,16,07,08,10.90
2008,06,16,07,09,10.90
2008,06,16,07,10,10.90
2008,06,16,07,11,11.00
2008,06,16,07,12,11.30
2008,06,16,07,13,11.40
2008,06,16,07,14,11.50
2008,06,16,07,15,11.60
2008,06,16,07,16,11.60
2008,06,16,07,17,11.60
2008,06,16,07,18,11.60
2008,06,16,07,19,11.60
2008,06,16,07,20,11.50
2008,06,16,07,21,11.40
2008,06,16,07,22,11.40
2008,06,16,07,23,11.40
2008,06,16,07,24,11.50
2008,06,16,07,25,11.60
2008,06,16,07,26,11.60
2008,06,16,07,27,11.60
2008,06,16,07,28,11.60
2008,06,16,07,29,11.70
2008,06,16,07,30,11.80
2008,06,16,07,31,11.80
2008,06,16,07,32,11.80
2008,06,16,07,33,11.80
2008,06,16,07,34,11.80
2008,06,16,07,35,11.80
2008,06,16,07,36,11.80
2008,06,16,07,37,11.80
2008,06,16,07,38,11.80
2008,06,16,07,39,11.80
2008,06,16,07,40,11.80
2008,06,16,07,41,11.80
2008,06,16,07,42,11.80
2008,06,16,07,43,11.80
2008,06,16,07,44,11.90
2008,06,16,07,45,12.00
2008,06,16,07,46,12.00
2008,06,16,07,47,12.00
2008,06,16,07,48,12.00
2008,06,16,07,49,12.00
2008,06,16,07,50,11.90
2008,06,16,07,51,11.90
2008,06,16,07,52,11.90
2008,06,16,07,53,12.00
2008,06,16,07,54,12.00
2008,06,16,07,55,12.00
2008,06,16,07,56,12.10
2008,06,16,07,57,12.10
2008,06,16,07,58,12.00
2008,06,16,07,59,12.00
2008,06,16,08,00,12.00
2008,06,16,08,01,12.00
2008,06,16,08,02,12.00
2008,06,16,08,03,12.00
2008,06,16,08,04,12.10
2008,06,16,08,05,12.00
2008,06,16,08,06,11.90
2008,06,16,08,07,11.90
2008,06,16,08,08,11.90
2008,06,16,08,09,12.00
2008,06,16,08,10,12.10
2008,06,16,08,11,12.10
2008,06,16,08,12,12.10
2008,06,16,08,13,12.10
2008,06,16,08,14,12.00
2008,06,16,08,15,12.00
2008,06,16,08,16,11.90
2008,06,16,08,17,11.80
2008,06,16,08,18,11.80
2008,06,16,08,19,11.80
2008,06,16,08,20,11.80
2008,06,16,08,21,11.80
2008,06,16,08,22,11.90
2008,06,16,08,23,12.00
2008,06,16,08,24,12.10
2008,06,16,08,25,12.20
2008,06,16,08,26,12.30
2008,06,16,08,27,12.40
2008,06,16,08,28,12.50
2008,06,16,08,29,12.50
2008,06,16,08,30,12.60
2008,06,16,08,31,12.60
2008,06,16,08,32,12.50
2008,06,16,08,33,12.40
2008,06,16,08,34,12.40
2008,06,16,08,35,12.30
2008,06,16,08,36,12.40
2008,06,16,08,37,12.40
2008,06,16,08,38,12.30
2008,06,16,08,39,12.30
2008,06,16,08,40,12.30
2008,06,16,08,41,12.30
2008,06,16,08,42,12.40
2008,06,16,08,43,12.40
2008,06,16,08,44,12.40
2008,06,16,08,45,12.50
2008,06,16,08,46,12.50
2008,06,16,08,47,12.40
2008,06,16,08,48,12.40
2008,06,16,08,49,12.40
2008,06,16,08,50,12.50
2008,06,16,08,51,12.50
2008,06,16,08,52,12.30
2008,06,16,08,53,12.30
2008,06,16,08,54,12.30
2008,06,16,08,55,12.20
2008,06,16,08,56,12.10
2008,06,16,08,57,12.10
2008,06,16,08,58,12.10
2008,06,16,08,59,12.00
2008,06,16,09,00,12.10
2008,06,16,09,01,12.20
2008,06,16,09,02,12.20
2008,06,16,09,03,12.30
2008,06,16,09,04,12.30
2008,06,16,09,05,12.40
2008,06,16,09,06,12.40
2008,06,16,09,07,12.40
2008,06,16,09,08,12.30
2008,06,16,09,09,12.40
2008,06,16,09,10,12.40
2008,06,16,09,11,12.40
2008,06,16,09,12,12.40
2008,06,16,09,13,12.40
2008,06,16,09,14,12.30
2008,06,16,09,15,12.30
2008,06,16,09,16,12.30
2008,06,16,09,17,12.30
2008,06,16,09,18,12.20
2008,06,16,09,19,12.20
2008,06,16,09,20,12.20
2008,06,16,09,21,12.10
2008,06,16,09,22,12.20
2008,06,16,09,23,12.30
2008,06,16,09,24,12.30
2008,06,16,09,25,12.30
2008,06,16,09,26,12.30
2008,06,16,09,27,12.30
2008,06,16,09,28,12.30
2008,06,16,09,29,12.40
2008,06,16,09,30,12.50
2008,06,16,09,31,12.60
2008,06,16,09,32,12.80
2008,06,16,09,33,12.90
2008,06,16,09,34,13.10
2008,06,16,09,35,13.10
2008,06,16,09,36,13.10
2008,06,16,09,37,13.00
2008,06,16,09,38,13.10
2008,06,16,09,39,13.00
2008,06,16,09,40,12.90
2008,06,16,09,41,12.90
2008,06,16,09,42,12.80
2008,06,16,09,43,12.80
2008,06,16,09,44,12.80
2008,06,16,09,45,12.80
2008,06,16,09,46,12.80
2008,06,16,09,47,13.00
2008,06,16,09,48,13.10
2008,06,16,09,49,13.20
2008,06,16,09,50,13.30
2008,06,16,09,51,13.40
2008,06,16,09,52,13.50
2008,06,16,09,53,13.50
2008,06,16,09,54,13.40
2008,06,16,09,55,13.30
2008,06,16,09,56,13.20
2008,06,16,09,57,13.30
2008,06,16,09,58,13.20
2008,06,16,09,59,13.20
2008,06,16,10,00,13.20
2008,06,16,10,01,13.10
2008,06,16,10,02,13.00
2008,06,16,10,03,12.90
2008,06,16,10,04,12.70
2008,06,16,10,05,12.70
2008,06,16,10,06,12.80
2008,06,16,10,07,12.80
2008,06,16,10,08,12.80
2008,06,16,10,09,12.80
2008,06,16,10,10,12.70
2008,06,16,10,11,12.70
2008,06,16,10,12,12.70
2008,06,16,10,13,12.60
2008,06,16,10,14,12.60
2008,06,16,10,15,12.70
2008,06,16,10,16,12.80
2008,06,16,10,17,12.80
2008,06,16,10,18,12.90
2008,06,16,10,19,12.80
2008,06,16,10,20,12.80
2008,06,16,10,21,12.80
2008,06,16,10,22,13.00
2008,06,16,10,23,13.00
2008,06,16,10,24,13.00
2008,06,16,10,25,13.00
2008,06,16,10,26,13.00
2008,06,16,10,27,13.00
2008,06,16,10,28,13.10
2008,06,16,10,29,13.20
2008,06,16,10,30,13.30
2008,06,16,10,31,13.30
2008,06,16,10,32,13.30
2008,06,16,10,33,13.20
2008,06,16,10,34,13.10
2008,06,16,10,35,13.00
2008,06,16,10,36,13.00
2008,06,16,10,37,13.10
2008,06,16,10,38,13.20
2008,06,16,10,39,13.20
2008,06,16,10,40,13.40
2008,06,16,10,41,13.60
2008,06,16,10,42,13.80
2008,06,16,10,43,13.80
2008,06,16,10,44,13.90
2008,06,16,10,45,13.80
2008,06,16,10,46,13.80
2008,06,16,10,47,13.70
2008,06,16,10,48,13.70
2008,06,16,10,49,13.70
2008,06,16,10,50,13.70
2008,06,16,10,51,13.60
2008,06,16,10,52,13.60
2008,06,16,10,53,13.60
2008,06,16,10,54,13.60
2008,06,16,10,55,13.50
2008,06,16,10,56,13.40
2008,06,16,10,57,13.30
2008,06,16,10,58,13.30
2008,06,16,10,59,13.30
2008,06,16,11,00,13.20
2008,06,16,11,01,13.20
2008,06,16,11,02,13.20
2008,06,16,11,03,13.30
2008,06,16,11,04,13.30
2008,06,16,11,05,13.20
2008,06,16,11,06,13.20
2008,06,16,11,07,13.20
2008,06,16,11,08,13.10
2008,06,16,11,09,13.10
2008,06,16,11,10,13.10
2008,06,16,11,11,13.10
2008,06,16,11,12,13.20
2008,06,16,11,13,13.20
2008,06,16,11,14,13.10
2008,06,16,11,15,13.20
2008,06,16,11,16,13.30
2008,06,16,11,17,13.30
2008,06,16,11,18,13.30
2008,06,16,11,19,13.30
2008,06,16,11,20,13.40
2008,06,16,11,21,13.30
2008,06,16,11,22,13.20
2008,06,16,11,23,13.10
2008,06,16,11,24,13.00
2008,06,16,11,25,13.00
2008,06,16,11,26,13.10
2008,06,16,11,27,13.10
2008,06,16,11,28,13.20
2008,06,16,11,29,13.40
2008,06,16,11,30,13.50
2008,06,16,11,31,13.70
2008,06,16,11,32,13.80
2008,06,16,11,33,13.80
2008,06,16,11,34,13.80
2008,06,16,11,35,13.90
2008,06,16,11,36,14.00
2008,06,16,11,37,14.10
2008,06,16,11,38,14.20
2008,06,16,11,39,14.20
2008,06,16,11,40,14.20
2008,06,16,11,41,14.20
2008,06,16,11,42,14.10
2008,06,16,11,43,14.20
2008,06,16,11,44,14.20
2008,06,16,11,45,14.30
2008,06,16,11,46,14.50
2008,06,16,11,47,14.40
2008,06,16,11,48,14.50
2008,06,16,11,49,14.60
2008,06,16,11,50,14.60
2008,06,16,11,51,14.60
2008,06,16,11,52,14.60
2008,06,16,11,53,14.50
2008,06,16,11,54,14.60
2008,06,16,11,55,14.50
2008,06,16,11,56,14.40
2008,06,16,11,57,14.50
2008,06,16,11,58,14.60
2008,06,16,11,59,14.70
2008,06,16,12,00,14.80
2008,06,16,12,01,14.80
2008,06,16,12,02,14.90
2008,06,16,12,03,14.90
2008,06,16,12,04,14.90
2008,06,16,12,05,14.90
2008,06,16,12,06,15.00
2008,06,16,12,07,15.10
2008,06,16,12,08,15.20
2008,06,16,12,09,15.20
2008,06,16,12,10,15.20
2008,06,16,12,11,15.20
2008,06,16,12,12,15.20
2008,06,16,12,13,15.20
2008,06,16,12,14,15.10
2008,06,16,12,15,15.10
2008,06,16,12,16,15.20
2008,06,16,12,17,15.30
2008,06,16,12,18,15.30
2008,06,16,12,19,15.30
2008,06,16,12,20,15.10
2008,06,16,12,21,15.00
2008,06,16,12,22,15.00
2008,06,16,12,23,15.10
2008,06,16,12,24,15.10
2008,06,16,12,25,15.10
2008,06,16,12,26,15.10
2008,06,16,12,27,15.20
2008,06,16,12,28,15.40
2008,06,16,12,29,15.40
2008,06,16,12,30,15.40
2008,06,16,12,31,15.40
2008,06,16,12,32,15.30
2008,06,16,12,33,15.30
2008,06,16,12,34,15.30
2008,06,16,12,35,15.30
2008,06,16,12,36,15.40
2008,06,16,12,37,15.50
2008,06,16,12,38,15.50
2008,06,16,12,39,15.50
2008,06,16,12,40,15.50
2008,06,16,12,41,15.50
2008,06,16,12,42,15.40
2008,06,16,12,43,15.50
2008,06,16,12,44,15.40
2008,06,16,12,45,15.40
2008,06,16,12,46,15.40
2008,06,16,12,47,15.60
2008,06,16,12,48,15.70
2008,06,16,12,49,15.80
2008,06,16,12,50,15.80
2008,06,16,12,51,15.80
2008,06,16,12,52,15.80
2008,06,16,12,53,15.80
2008,06,16,12,54,15.80
2008,06,16,12,55,15.90
2008,06,16,12,56,16.00
2008,06,16,12,57,16.10
2008,06,16,12,58,16.30
2008,06,16,12,59,16.40
2008,06,16,13,00,16.60
2008,06,16,13,01,16.40
2008,06,16,13,02,16.40
2008,06,16,13,03,16.20
2008,06,16,13,04,16.00
2008,06,16,13,05,16.00
2008,06,16,13,06,16.10
2008,06,16,13,07,16.20
2008,06,16,13,08,16.30
2008,06,16,13,09,16.30
2008,06,16,13,10,16.30
2008,06,16,13,11,16.30
2008,06,16,13,12,16.30
2008,06,16,13,13,16.30
2008,06,16,13,14,16.20
2008,06,16,13,15,16.00
2008,06,16,13,16,15.80
2008,06,16,13,17,15.80
2008,06,16,13,18,15.80
2008,06,16,13,19,15.80
2008,06,16,13,20,15.80
2008,06,16,13,21,15.80
2008,06,16,13,22,15.80
2008,06,16,13,23,15.80
2008,06,16,13,24,15.80
2008,06,16,13,25,15.90
2008,06,16,13,26,15.80
2008,06,16,13,27,15.80
2008,06,16,13,28,15.80
2008,06,16,13,29,16.00
2008,06,16,13,30,16.10
2008,06,16,13,31,16.20
2008,06,16,13,32,16.20
2008,06,16,13,33,16.30
2008,06,16,13,34,16.40
2008,06,16,13,35,16.60
2008,06,16,13,36,16.90
2008,06,16,13,37,17.10
2008,06,16,13,38,17.50
2008,06,16,13,39,17.90
2008,06,16,13,40,18.20
2008,06,16,13,41,18.40
2008,06,16,13,42,18.60
2008,06,16,13,43,18.80
2008,06,16,13,44,18.80
2008,06,16,13,45,18.90
2008,06,16,13,46,18.80
2008,06,16,13,47,19.00
2008,06,16,13,48,19.10
2008,06,16,13,49,19.10
2008,06,16,13,50,19.20
2008,06,16,13,51,19.40
2008,06,16,13,52,19.40
2008,06,16,13,53,19.40
2008,06,16,13,54,19.50
2008,06,16,13,55,19.60
2008,06,16,13,56,19.60
2008,06,16,13,57,19.60
2008,06,16,13,58,19.60
2008,06,16,13,59,19.60
2008,06,16,14,00,19.40
2008,06,16,14,01,19.30
2008,06,16,14,02,19.20
2008,06,16,14,03,19.10
2008,06,16,14,04,19.20
2008,06,16,14,05,19.30
2008,06,16,14,06,19.40
2008,06,16,14,07,19.50
2008,06,16,14,08,19.50
2008,06,16,14,09,19.40
2008,06,16,14,10,19.40
2008,06,16,14,11,19.30
2008,06,16,14,12,19.20
2008,06,16,14,13,19.10
2008,06,16,14,14,19.20
2008,06,16,14,15,19.30
2008,06,16,14,16,19.30
2008,06,16,14,17,19.40
2008,06,16,14,18,19.40
2008,06,16,14,19,19.50
2008,06,16,14,20,19.40
2008,06,16,14,21,19.30
2008,06,16,14,22,19.20
2008,06,16,14,23,19.10
2008,06,16,14,24,19.10
2008,06,16,14,25,19.20
2008,06,16,14,26,19.30
2008,06,16,14,27,19.50
2008,06,16,14,28,19.50
2008,06,16,14,29,19.50
2008,06,16,14,30,19.50
2008,06,16,14,31,19.50
2008,06,16,14,32,19.50
2008,06,16,14,33,19.50
2008,06,16,14,34,19.50
2008,06,16,14,35,19.40
2008,06,16,14,36,19.50
2008,06,16,14,37,19.60
2008,06,16,14,38,19.70
2008,06,16,14,39,19.80
2008,06,16,14,40,19.80
2008,06,16,14,41,19.90
2008,06,16,14,42,19.90
2008,06,16,14,43,19.90
2008,06,16,14,44,20.00
2008,06,16,14,45,20.10
2008,06,16,14,46,20.10
2008,06,16,14,47,20.10
2008,06,16,14,48,20.00
2008,06,16,14,49,19.90
2008,06,16,14,50,19.90
2008,06,16,14,51,19.90
2008,06,16,14,52,20.10
2008,06,16,14,53,20.20
2008,06,16,14,54,20.10
2008,06,16,14,55,20.10
2008,06,16,14,56,20.10
2008,06,16,14,57,20.10
2008,06,16,14,58,20.20
2008,06,16,14,59,20.20
2008,06,16,15,00,20.20
2008,06,16,15,01,20.30
2008,06,16,15,02,20.30
2008,06,16,15,03,20.40
2008,06,16,15,04,20.40
2008,06,16,15,05,20.40
2008,06,16,15,06,20.50
2008,06,16,15,07,20.60
2008,06,16,15,08,20.70
2008,06,16,15,09,20.80
2008,06,16,15,10,20.80
2008,06,16,15,11,20.60
2008,06,16,15,12,20.60
2008,06,16,15,13,20.40
2008,06,16,15,14,20.30
2008,06,16,15,15,20.20
2008,06,16,15,16,20.10
2008,06,16,15,17,20.00
2008,06,16,15,18,19.90
2008,06,16,15,19,19.90
2008,06,16,15,20,19.90
2008,06,16,15,21,19.90
2008,06,16,15,22,19.80
2008,06,16,15,23,19.80
2008,06,16,15,24,19.80
2008,06,16,15,25,19.80
2008,06,16,15,26,19.80
2008,06,16,15,27,19.90
2008,06,16,15,28,20.10
2008,06,16,15,29,20.20
2008,06,16,15,30,20.40
2008,06,16,15,31,20.50
2008,06,16,15,32,20.70
2008,06,16,15,33,20.80
2008,06,16,15,34,21.00
2008,06,16,15,35,21.00
2008,06,16,15,36,21.00
2008,06,16,15,37,21.00
2008,06,16,15,38,21.00
2008,06,16,15,39,21.10
2008,06,16,15,40,21.30
2008,06,16,15,41,21.30
2008,06,16,15,42,21.40
2008,06,16,15,43,21.50
2008,06,16,15,44,21.60
2008,06,16,15,45,21.60
2008,06,16,15,46,21.60
2008,06,16,15,47,21.60
2008,06,16,15,48,21.60
2008,06,16,15,49,21.60
2008,06,16,15,50,21.60
2008,06,16,15,51,21.60
2008,06,16,15,52,21.60
2008,06,16,15,53,21.40
2008,06,16,15,54,21.50
2008,06,16,15,55,21.60
2008,06,16,15,56,21.60
2008,06,16,15,57,21.60
2008,06,16,15,58,21.60
2008,06,16,15,59,21.60
2008,06,16,16,00,21.80
2008,06,16,16,01,21.90
2008,06,16,16,02,22.00
2008,06,16,16,03,22.00
2008,06,16,16,04,22.10
2008,06,16,16,05,22.00
2008,06,16,16,06,21.90
2008,06,16,16,07,21.80
2008,06,16,16,08,21.70
2008,06,16,16,09,21.70
2008,06,16,16,10,21.70
2008,06,16,16,11,21.70
2008,06,16,16,12,21.70
2008,06,16,16,13,21.70
2008,06,16,16,14,21.60
2008,06,16,16,15,21.60
2008,06,16,16,16,21.60
2008,06,16,16,17,21.60
2008,06,16,16,18,21.60
2008,06,16,16,19,21.70
2008,06,16,16,20,21.60
2008,06,16,16,21,21.60
2008,06,16,16,22,21.60
2008,06,16,16,23,21.60
2008,06,16,16,24,21.60
2008,06,16,16,25,21.60
2008,06,16,16,26,21.60
2008,06,16,16,27,21.60
2008,06,16,16,28,21.60
2008,06,16,16,29,21.60
2008,06,16,16,30,21.60
2008,06,16,16,31,21.60
2008,06,16,16,32,21.60
2008,06,16,16,33,21.60
2008,06,16,16,34,21.70
2008,06,16,16,35,21.80
2008,06,16,16,36,21.80
2008,06,16,16,37,21.90
2008,06,16,16,38,21.90
2008,06,16,16,39,21.90
2008,06,16,16,40,21.80
2008,06,16,16,41,21.80
2008,06,16,16,42,21.80
2008,06,16,16,43,21.80
2008,06,16,16,44,21.80
2008,06,16,16,45,21.90
2008,06,16,16,46,22.00
2008,06,16,16,47,22.00
2008,06,16,16,48,22.00
2008,06,16,16,49,22.00
2008,06,16,16,50,21.90
2008,06,16,16,51,21.90
2008,06,16,16,52,21.80
2008,06,16,16,53,21.80
2008,06,16,16,54,21.70
2008,06,16,16,55,21.70
2008,06,16,16,56,21.70
2008,06,16,16,57,21.70
2008,06,16,16,58,21.70
2008,06,16,16,59,21.60
2008,06,16,17,00,21.60
2008,06,16,17,01,21.60
2008,06,16,17,02,21.60
2008,06,16,17,03,21.50
2008,06,16,17,04,21.40
2008,06,16,17,05,21.30
2008,06,16,17,06,21.40
2008,06,16,17,07,21.40
2008,06,16,17,08,21.40
2008,06,16,17,09,21.40
2008,06,16,17,10,21.40
2008,06,16,17,11,21.40
2008,06,16,17,12,21.40
2008,06,16,17,13,21.30
2008,06,16,17,14,21.30
2008,06,16,17,15,21.30
2008,06,16,17,16,21.30
2008,06,16,17,17,21.40
2008,06,16,17,18,21.40
2008,06,16,17,19,21.40
2008,06,16,17,20,21.40
2008,06,16,17,21,21.40
2008,06,16,17,22,21.40
2008,06,16,17,23,21.60
2008,06,16,17,24,21.60
2008,06,16,17,25,21.60
2008,06,16,17,26,21.60
2008,06,16,17,27,21.60
2008,06,16,17,28,21.60
2008,06,16,17,29,21.70
2008,06,16,17,30,21.70
2008,06,16,17,31,21.70